OBJECT B

Satellite information

Favourite Embed

Satellite Type and Status

UNKNOWNIN ORBIT

Key statistics

Satellite OBJECT B at a glance.

Uptime

17

Days in orbit

Revolutions

≈ 15.0

Per day

Orbit

LEO

Low Earth Orbit

Inclination

45.4

Latest

Satellite identification and parameters

Extended collection of information and parameters for OBJECT B.

Object identification

Identified? True

Debris? False

Object name: OBJECT B

International designator: 2025-081B

Object number (NORAD): 63631

Object ID (CCSDS): 63631

Country: TO BE DETERMINED/UNKNOWN (TBD)

Current information (Y/N): Y

RCS size: MEDIUM

Orbital parameters

Period: 96.148 minutes

Inclination: 45.3929 deg

SMA: 6952.164 km

Apoapsis: 576.319 km

Periapsis: 571.739 km

RAAN: 271.9759 deg

Eccentricy: 0.0003294

Argument of periapsis: 257.3688 deg

Mean anomaly: 102.6821 deg

Mean motion: 14.97692836 rev/day

Mean motion (dot): 0.00002201 rev/day2

B* drag term: 0.00020409 1/REarth

Two-line elements (TLE)

Creation date: May 9, 2025, 2:46 a.m.

Reference frame: TEME

Reference center: EARTH

Epoch: May 8, 2025, 9:20 p.m. UTC

TLE line 0: 0 OBJECT B

TLE line 1: 1 63631U 25081B 25128.88938742 .00002201 00000-0 20409-3 0 9995

TLE line 2: 2 63631 45.3929 271.9759 0003294 257.3688 102.6821 14.97692836 2524

Live tracking on map

Real-time ground track for satellite OBJECT B.

In-orbit conjunctions

There are no conjunctions computed for OBJECT B, at the moment. Check back to stay up to date, as we update our databases every day.

Go to all conjunctions

Associated space launch

Dedicated rideshare flight to a mid-inclination orbit with dozens of small microsatellites and nanosatellites for commercial and government customers.

OBJECT B was lifted into orbit during the mission ‘Falcon 9 Block 5 | Bandwagon 3 (Dedicated Mid-Inclination Rideshare)’, on board a Falcon 9 space rocket.

The launch took place on April 22, 2025, 12:48 a.m. from Space Launch Complex 40.

For more information about the launch, click the button.

Launch to space Falcon 9 Block 5 | Bandwagon 3 (Dedicated Mid-Inclination Rideshare)
Falcon 9 Block 5 | Bandwagon 3 (Dedicated Mid-Inclination Rideshare)

Agency: SpaceX

Status: Launch Successful

Launch date: April 22, 2025, 12:48 a.m. UTC

Rocket: Falcon 9

Launch pad: Space Launch Complex 40

Location: Cape Canaveral SFS, FL, USA

...

Latest news about this satellite

News about space launch
SpaceX Launches Sparse Bandwagon-3 Mission with Just Three Payloads

SpaceX Launches Sparse Bandwagon-3 Mission with Just Three Payloads

News about space launch
ATMOS PHOENIX 1 Reaches Orbit; Conducts Critical Inflatable ReEntry Test

ATMOS PHOENIX 1 Reaches Orbit; Conducts Critical Inflatable ReEntry Test

News about space launch
Atmos Space Cargo declares first test flight a success despite reentry uncertainty

German startup Atmos Space Cargo says it considers the first flight of its reentry vehicle a success despite limited data on how it performed during reentry. The post Atmos Space Cargo declares first test flight a success despite reentry uncertainty appe...


Newsletter sign-up

Weekly statistics, charts and insights to help you stay on top of the space industry.